DLH4XK EDDF-EDDH

Flight info

Callsign DLH4XK
Flight time 0h 49m
Altitude 35000
Route MARUN3W/25C MARUN Y150 TOLGI DCT SAS/N0445F340 P605 NOLGO NOLGO6A
Aircraft A20N/M-SDE2E3FGHIRWXY/LB1

Departure

Time 2026-05-06 18:37
Airport Frankfurt Main Airport (EDDF)

Arrival

Time 2026-05-06 19:27
Airport Hamburg Helmut Schmidt Airport (EDDH)
Time Latitude Longitude Altitude Speed Heading
2026-05-06 18:14 50.04852 8.56948 359 ft 0 kts 296°
2026-05-06 18:27 50.04846 8.56968 360 ft 2 kts 295°
2026-05-06 18:27 50.04839 8.56989 360 ft 2 kts 296°
2026-05-06 18:27 50.04833 8.57010 360 ft 2 kts 295°
2026-05-06 18:27 50.04828 8.57026 360 ft 0 kts 296°
2026-05-06 18:28 50.04825 8.57043 360 ft 2 kts 257°
2026-05-06 18:28 50.04832 8.57063 360 ft 1 kts 213°
2026-05-06 18:28 50.04835 8.57066 360 ft 0 kts 203°
2026-05-06 18:28 50.04816 8.57050 360 ft 3 kts 205°
2026-05-06 18:29 50.04791 8.57032 360 ft 3 kts 205°
2026-05-06 18:29 50.04768 8.57015 360 ft 2 kts 205°
2026-05-06 18:29 50.04763 8.57011 360 ft 0 kts 205°
2026-05-06 18:31 50.04758 8.57008 360 ft 3 kts 205°
2026-05-06 18:31 50.04708 8.56971 359 ft 10 kts 205°
2026-05-06 18:32 50.04634 8.56921 359 ft 12 kts 201°
2026-05-06 18:32 50.04547 8.56888 358 ft 13 kts 192°
2026-05-06 18:32 50.04451 8.56854 357 ft 14 kts 193°
2026-05-06 18:32 50.04362 8.56827 357 ft 12 kts 189°
2026-05-06 18:33 50.04284 8.56850 356 ft 11 kts 128°
2026-05-06 18:33 50.04292 8.56971 357 ft 11 kts 70°
2026-05-06 18:33 50.04320 8.57089 358 ft 11 kts 70°
2026-05-06 18:33 50.04349 8.57208 359 ft 11 kts 69°
2026-05-06 18:34 50.04377 8.57325 360 ft 11 kts 69°
2026-05-06 18:34 50.04406 8.57445 361 ft 11 kts 70°
2026-05-06 18:34 50.04426 8.57561 362 ft 11 kts 91°
2026-05-06 18:34 50.04392 8.57649 363 ft 7 kts 147°
2026-05-06 18:35 50.04375 8.57663 363 ft 0 kts 159°
2026-05-06 18:35 50.04344 8.57681 363 ft 7 kts 159°
2026-05-06 18:36 50.04292 8.57712 363 ft 7 kts 159°
2026-05-06 18:36 50.04273 8.57694 363 ft 0 kts 250°
2026-05-06 18:37 50.04238 8.57545 361 ft 45 kts 250°
2026-05-06 18:37 50.04034 8.56691 355 ft 119 kts 250°
2026-05-06 18:37 50.03678 8.55207 440 ft 166 kts 252°
2026-05-06 18:37 50.03274 8.53543 1054 ft 170 kts 252°
2026-05-06 18:38 50.02851 8.51832 1857 ft 170 kts 253°
2026-05-06 18:38 50.02361 8.50159 2561 ft 177 kts 239°
2026-05-06 18:38 50.01484 8.48790 3175 ft 187 kts 217°
2026-05-06 18:38 50.00288 8.48003 3841 ft 193 kts 195°
2026-05-06 18:39 49.98965 8.47665 4564 ft 194 kts 191°
2026-05-06 18:39 49.97636 8.47402 5289 ft 194 kts 191°
2026-05-06 18:39 49.96302 8.47104 6008 ft 193 kts 195°
2026-05-06 18:40 49.93750 8.46023 7400 ft 193 kts 200°
2026-05-06 18:40 49.92476 8.45350 8062 ft 193 kts 211°
2026-05-06 18:40 49.91450 8.44073 8720 ft 191 kts 233°
2026-05-06 18:40 49.90813 8.42292 9350 ft 191 kts 253°
2026-05-06 18:41 49.90638 8.40285 9949 ft 193 kts 274°
2026-05-06 18:41 49.90958 8.38258 10552 ft 196 kts 294°
2026-05-06 18:41 49.91754 8.36536 11154 ft 201 kts 316°
2026-05-06 18:41 49.92937 8.35356 11707 ft 206 kts 333°
2026-05-06 18:42 49.94299 8.34438 12016 ft 225 kts 335°
2026-05-06 18:42 49.95827 8.33472 12367 ft 244 kts 336°
2026-05-06 18:42 49.97465 8.32508 12752 ft 262 kts 345°
2026-05-06 18:42 49.99332 8.32560 13086 ft 283 kts 17°
2026-05-06 18:43 50.01165 8.33890 13477 ft 301 kts 28°
2026-05-06 18:43 50.03059 8.35585 13851 ft 319 kts 28°
2026-05-06 18:43 50.05060 8.37328 14195 ft 337 kts 27°
2026-05-06 18:43 50.07153 8.39062 14577 ft 352 kts 26°
2026-05-06 18:44 50.09390 8.40846 14919 ft 367 kts 26°
2026-05-06 18:44 50.11702 8.42651 15505 ft 374 kts 25°
2026-05-06 18:44 50.14035 8.44452 16190 ft 378 kts 25°
2026-05-06 18:44 50.16435 8.46293 16859 ft 382 kts 25°
2026-05-06 18:45 50.18821 8.48115 17496 ft 386 kts 25°
2026-05-06 18:45 50.21245 8.49966 18126 ft 390 kts 25°
2026-05-06 18:45 50.23690 8.51833 18724 ft 395 kts 25°
2026-05-06 18:45 50.26163 8.53721 19305 ft 399 kts 25°
2026-05-06 18:46 50.28696 8.55655 19872 ft 404 kts 25°
2026-05-06 18:46 50.31238 8.57599 20436 ft 408 kts 25°
2026-05-06 18:46 50.33784 8.59548 20969 ft 413 kts 25°
2026-05-06 18:46 50.36379 8.61538 21507 ft 418 kts 25°
2026-05-06 18:47 50.39037 8.63577 22062 ft 422 kts 25°
2026-05-06 18:47 50.41667 8.65598 22589 ft 426 kts 26°
2026-05-06 18:47 50.44335 8.67649 23096 ft 430 kts 26°
2026-05-06 18:47 50.47031 8.69726 23598 ft 435 kts 26°
2026-05-06 18:48 50.49753 8.71825 24085 ft 439 kts 26°
2026-05-06 18:48 50.52491 8.73940 24582 ft 442 kts 26°
2026-05-06 18:48 50.55289 8.76102 25073 ft 446 kts 26°
2026-05-06 18:48 50.58100 8.78278 25541 ft 450 kts 26°
2026-05-06 18:49 50.60908 8.80456 25997 ft 453 kts 26°
2026-05-06 18:49 50.63764 8.82675 26426 ft 457 kts 26°
2026-05-06 18:49 50.66617 8.84894 26849 ft 461 kts 26°
2026-05-06 18:49 50.69505 8.87143 27369 ft 461 kts 26°
2026-05-06 18:50 50.72381 8.89383 27979 ft 459 kts 26°
2026-05-06 18:50 50.75258 8.91630 28543 ft 458 kts 26°
2026-05-06 18:50 50.78108 8.93861 29017 ft 459 kts 26°
2026-05-06 18:50 50.80977 8.96108 29478 ft 459 kts 26°
2026-05-06 18:51 50.83853 8.98363 29946 ft 459 kts 26°
2026-05-06 18:51 50.86694 9.00595 30391 ft 459 kts 26°
2026-05-06 18:51 50.89560 9.02848 30818 ft 459 kts 25°
2026-05-06 18:51 50.92445 9.05120 31210 ft 459 kts 25°
2026-05-06 18:52 50.95275 9.07351 31586 ft 458 kts 25°
2026-05-06 18:52 50.98126 9.09600 31974 ft 457 kts 25°
2026-05-06 18:52 51.00980 9.11856 32355 ft 456 kts 26°
2026-05-06 18:52 51.03835 9.14116 32737 ft 455 kts 26°
2026-05-06 18:53 51.06653 9.16349 33072 ft 453 kts 26°
2026-05-06 18:53 51.09506 9.18615 33351 ft 453 kts 26°
2026-05-06 18:53 51.12282 9.20824 33566 ft 454 kts 26°
2026-05-06 18:53 51.15123 9.23089 33766 ft 456 kts 26°
2026-05-06 18:54 51.17959 9.25354 33989 ft 456 kts 26°
2026-05-06 18:54 51.20769 9.27599 34202 ft 456 kts 26°
2026-05-06 18:54 51.23615 9.29872 34422 ft 456 kts 25°
2026-05-06 18:54 51.26506 9.31993 34610 ft 457 kts 22°
2026-05-06 18:55 51.29482 9.33850 34764 ft 458 kts 18°
2026-05-06 18:55 51.35570 9.36665 34794 ft 457 kts 11°
2026-05-06 18:56 51.41818 9.38838 34796 ft 457 kts 10°
2026-05-06 18:56 51.48065 9.40982 34798 ft 457 kts 10°
2026-05-06 18:57 51.54299 9.43155 34795 ft 457 kts 10°
2026-05-06 18:57 51.60525 9.45342 34793 ft 457 kts 10°
2026-05-06 18:58 51.66771 9.47544 34795 ft 456 kts 10°
2026-05-06 18:58 51.72957 9.49734 34787 ft 456 kts 10°
2026-05-06 18:59 51.79136 9.52045 34788 ft 456 kts 13°
2026-05-06 18:59 51.85153 9.55345 34781 ft 457 kts 21°
2026-05-06 19:00 51.90934 9.59775 34795 ft 458 kts 26°
2026-05-06 19:00 51.96589 9.64513 34794 ft 458 kts 26°
2026-05-06 19:01 52.02283 9.69279 34800 ft 458 kts 26°
2026-05-06 19:01 52.07923 9.73991 34804 ft 457 kts 26°
2026-05-06 19:02 52.13591 9.78735 34813 ft 457 kts 26°
2026-05-06 19:02 52.16403 9.81094 34683 ft 459 kts 26°
2026-05-06 19:02 52.19278 9.83509 34191 ft 461 kts 26°
2026-05-06 19:02 52.22152 9.85857 33648 ft 462 kts 24°
2026-05-06 19:03 52.25076 9.87912 33069 ft 464 kts 20°
2026-05-06 19:03 52.28127 9.89679 32398 ft 465 kts 16°
2026-05-06 19:03 52.31208 9.91137 31712 ft 465 kts 14°
2026-05-06 19:03 52.34322 9.92502 31037 ft 465 kts 14°
2026-05-06 19:04 52.37455 9.93856 30270 ft 463 kts 14°
2026-05-06 19:04 52.40531 9.95195 29547 ft 461 kts 14°
2026-05-06 19:04 52.43673 9.96573 28807 ft 460 kts 14°
2026-05-06 19:04 52.46756 9.97934 28068 ft 458 kts 14°
2026-05-06 19:05 52.49786 9.99276 27337 ft 457 kts 14°
2026-05-06 19:05 52.52877 10.00646 26591 ft 455 kts 14°
2026-05-06 19:05 52.55952 10.02011 26037 ft 449 kts 14°
2026-05-06 19:05 52.58923 10.03129 25535 ft 441 kts
2026-05-06 19:06 52.61980 10.03609 25055 ft 434 kts
2026-05-06 19:06 52.64936 10.03891 24588 ft 427 kts
2026-05-06 19:06 52.67883 10.04171 24112 ft 422 kts
2026-05-06 19:06 52.70813 10.04486 23613 ft 418 kts
2026-05-06 19:07 52.73716 10.04829 23090 ft 415 kts
2026-05-06 19:07 52.76584 10.05189 22572 ft 412 kts
2026-05-06 19:07 52.79409 10.05556 22067 ft 409 kts
2026-05-06 19:07 52.82273 10.05938 21549 ft 407 kts
2026-05-06 19:08 52.85059 10.06313 21039 ft 404 kts
2026-05-06 19:08 52.87860 10.06692 20526 ft 402 kts
2026-05-06 19:08 52.90630 10.07069 20022 ft 400 kts
2026-05-06 19:08 52.93394 10.07445 19520 ft 397 kts
2026-05-06 19:09 52.96131 10.07820 19017 ft 395 kts
2026-05-06 19:09 52.98842 10.08192 18522 ft 393 kts
2026-05-06 19:09 53.01575 10.08567 18022 ft 390 kts
2026-05-06 19:09 53.04268 10.08936 17542 ft 388 kts
2026-05-06 19:10 53.06925 10.09304 17047 ft 386 kts
2026-05-06 19:10 53.09599 10.09673 16551 ft 384 kts
2026-05-06 19:10 53.12237 10.10037 16072 ft 382 kts
2026-05-06 19:10 53.14885 10.10404 15575 ft 380 kts
2026-05-06 19:11 53.17525 10.10771 15071 ft 378 kts
2026-05-06 19:11 53.20129 10.11133 14584 ft 375 kts
2026-05-06 19:11 53.22727 10.11494 14089 ft 373 kts
2026-05-06 19:11 53.25304 10.11850 13596 ft 371 kts
2026-05-06 19:12 53.27863 10.12203 13105 ft 368 kts
2026-05-06 19:12 53.30392 10.12556 12619 ft 365 kts
2026-05-06 19:12 53.32920 10.12909 12136 ft 362 kts
2026-05-06 19:12 53.35414 10.13019 11648 ft 358 kts 353°
2026-05-06 19:13 53.37779 10.11804 11164 ft 353 kts 332°
2026-05-06 19:13 53.39671 10.09276 10671 ft 349 kts 310°
2026-05-06 19:13 53.40841 10.05810 10286 ft 334 kts 287°
2026-05-06 19:13 53.41112 10.02130 10046 ft 310 kts 269°
2026-05-06 19:14 53.40865 9.98688 9721 ft 294 kts 258°
2026-05-06 19:14 53.40356 9.95375 9240 ft 293 kts 255°
2026-05-06 19:14 53.39788 9.92061 8751 ft 296 kts 254°
2026-05-06 19:14 53.39211 9.88776 8219 ft 293 kts 254°
2026-05-06 19:15 53.38642 9.85573 7712 ft 286 kts 254°
2026-05-06 19:15 53.38067 9.82362 7212 ft 288 kts 254°
2026-05-06 19:15 53.37495 9.79183 6772 ft 288 kts 254°
2026-05-06 19:15 53.36915 9.75975 6343 ft 288 kts 254°
2026-05-06 19:16 53.36327 9.72740 5914 ft 290 kts 254°
2026-05-06 19:16 53.35806 9.69518 5477 ft 289 kts 264°
2026-05-06 19:16 53.35955 9.66253 5047 ft 281 kts 292°
2026-05-06 19:16 53.36927 9.63602 4878 ft 254 kts 318°
2026-05-06 19:17 53.38149 9.61671 4873 ft 236 kts 323°
2026-05-06 19:17 53.39388 9.59888 4880 ft 234 kts 324°
2026-05-06 19:17 53.40644 9.58113 4764 ft 235 kts 324°
2026-05-06 19:17 53.41895 9.56349 4366 ft 238 kts 324°
2026-05-06 19:18 53.43152 9.54573 3953 ft 234 kts 324°
2026-05-06 19:18 53.44385 9.52820 3539 ft 230 kts 324°
2026-05-06 19:18 53.45590 9.51094 3132 ft 226 kts 324°
2026-05-06 19:18 53.46772 9.49402 2989 ft 224 kts 327°
2026-05-06 19:19 53.48136 9.48291 2966 ft 216 kts 357°
2026-05-06 19:19 53.49593 9.48659 2977 ft 210 kts 31°
2026-05-06 19:19 53.50605 9.50317 2978 ft 208 kts 64°
2026-05-06 19:19 53.50849 9.52736 2977 ft 214 kts 97°
2026-05-06 19:20 53.50354 9.55111 2989 ft 218 kts 111°
2026-05-06 19:20 53.49661 9.57416 2980 ft 219 kts 114°
2026-05-06 19:20 53.48943 9.59669 2973 ft 219 kts 114°
2026-05-06 19:20 53.48417 9.61995 2961 ft 213 kts 93°
2026-05-06 19:21 53.48367 9.64493 2982 ft 212 kts 86°
2026-05-06 19:21 53.48424 9.66948 2974 ft 211 kts 82°
2026-05-06 19:21 53.48778 9.69336 2972 ft 209 kts 65°
2026-05-06 19:21 53.49500 9.71448 2980 ft 209 kts 54°
2026-05-06 19:22 53.50407 9.73339 2974 ft 202 kts 49°
2026-05-06 19:22 53.51298 9.75037 2963 ft 187 kts 49°
2026-05-06 19:22 53.52121 9.76637 2989 ft 170 kts 50°
2026-05-06 19:22 53.52877 9.78149 2828 ft 168 kts 50°
2026-05-06 19:23 53.53609 9.79638 2612 ft 165 kts 51°
2026-05-06 19:23 53.54333 9.81119 2403 ft 164 kts 51°
2026-05-06 19:23 53.55061 9.82610 2188 ft 162 kts 51°
2026-05-06 19:23 53.55776 9.84070 1970 ft 158 kts 51°
2026-05-06 19:24 53.56460 9.85467 1759 ft 153 kts 51°
2026-05-06 19:24 53.57129 9.86830 1554 ft 151 kts 51°
2026-05-06 19:24 53.57806 9.88209 1379 ft 153 kts 50°
2026-05-06 19:24 53.58467 9.89551 1153 ft 146 kts 50°
2026-05-06 19:25 53.59096 9.90829 957 ft 138 kts 51°
2026-05-06 19:25 53.59712 9.92079 770 ft 138 kts 51°
2026-05-06 19:25 53.60318 9.93309 585 ft 138 kts 51°
2026-05-06 19:25 53.60931 9.94554 399 ft 138 kts 50°
2026-05-06 19:26 53.61538 9.95781 212 ft 136 kts 50°
2026-05-06 19:26 53.62131 9.96992 63 ft 134 kts 50°
2026-05-06 19:26 53.62687 9.98117 42 ft 107 kts 50°
2026-05-06 19:26 53.63059 9.98871 44 ft 60 kts 50°
2026-05-06 19:27 53.63249 9.99256 45 ft 22 kts 51°
2026-05-06 19:27 53.63293 9.99475 46 ft 13 kts 90°
2026-05-06 19:27 53.63283 9.99592 46 ft 5 kts 100°
2026-05-06 19:27 53.63281 9.99610 46 ft 0 kts 99°
2026-05-06 19:28 53.63280 9.99622 46 ft 2 kts 99°
2026-05-06 19:28 53.63276 9.99657 46 ft 4 kts 99°
2026-05-06 19:28 53.63274 9.99734 46 ft 7 kts 78°
2026-05-06 19:28 53.63306 9.99820 47 ft 10 kts 51°
2026-05-06 19:29 53.63352 9.99910 47 ft 8 kts 49°
2026-05-06 19:29 53.63392 9.99990 48 ft 8 kts 50°
2026-05-06 19:29 53.63428 10.00074 49 ft 8 kts 70°
2026-05-06 19:29 53.63403 10.00157 49 ft 8 kts 162°
2026-05-06 19:30 53.63351 10.00163 49 ft 8 kts 175°
2026-05-06 19:30 53.63287 10.00172 48 ft 10 kts 176°
2026-05-06 19:30 53.63222 10.00179 48 ft 6 kts 173°
2026-05-06 19:30 53.63201 10.00239 48 ft 7 kts 85°
2026-05-06 19:31 53.63206 10.00330 48 ft 5 kts 85°
2026-05-06 19:31 53.63207 10.00360 48 ft 0 kts 86°